2018-058B

Last updated on Wed Jul 11 2018 00:15:08 GMT+0000 (Coordinated Universal Time)

1 43538U 18058B 18191.63957013 .01558006 12122-4 34608-3 0 9990 2 43538 51.6529 261.6021 0019678 70.6079 289.7082 16.28924446 126

Satellite not in orbit